TIANMU-1 05

Last updated on Thu Oct 30 2025 00:02:23 GMT+0000 (Coordinated Universal Time)

1 55975U 23039C 25302.48005669 .00019402 00000+0 50272-3 0 9992 2 55975 97.5094 103.6587 0002710 222.1854 137.9183 15.39075804145230
UTC large
Height (km)
Speed (km/s)
/
Latitude / Longitude
Inclination (degrees)
Orbital Period (minutes)
Azimuth
Elevation
Range (km)
Doppler Factor

Next 0 passes for location: London (51.5072 / 0.1276)

Sorry there are no passes over London.